[[{"header":{"parameterUnit":"m.s-1","parameterCategory":1,"la1":30.2992,"la2":30.254,"lo1":-89.0895,"lo2":-89.0443,"dy":0.0025,"dx":0.0025,"nx":19,"ny":19,"refTime":"2026-05-02T21:00:00:Z","depth":0,"parameterNumber":2,"parameterNumberName":"U-component_of_WINDS"},"data":[0,0,0,-1.7609,-1.7614,-1.7827,-1.7827,-1.8129,-1.8132,0,0,0,0,0,0,0,0,0,0,0,-1.7564,-1.7567,-1.7609,-1.7615,-1.7827,-1.7827,-1.8129,-1.8132,0,0,0,0,0,0,0,0,0,0,0,-1.7563,-1.7566,-1.7569,-1.7616,-1.7826,-1.7827,-1.8128,-1.7957,0,0,0,0,0,0,0,0,0,0,-1.7746,-1.7721,-1.7565,-1.7569,-1.7617,-1.7826,-1.7828,-1.7949,-1.7968,-1.8046,0,-1.8118,0,-1.813,-1.8154,-1.8155,0,0,0,-1.7602,-1.7705,-1.7746,-1.757,-1.7619,-1.7826,-1.7728,-1.7959,-1.7981,-1.8072,-1.8122,-1.8133,-1.8135,-1.8156,-1.8158,-1.8646,-1.8649,0,0,-1.7591,-1.7612,-1.7731,-1.7761,-1.7729,-1.7721,-1.7734,-1.7972,-1.8029,-1.8123,-1.8139,-1.814,-1.8158,-1.8161,-1.8643,-1.8647,0,0,0,-1.7565,-1.7605,-1.7639,-1.775,-1.7785,-1.7727,-1.7743,-1.8019,-1.8028,-1.8142,-1.8144,-1.816,-1.8164,-1.864,-1.8644,-1.881,0,0,0,-1.7558,-1.7589,-1.7635,-1.765,-1.7782,-1.7905,-1.7785,-1.8012,-1.8038,-1.8142,-1.816,-1.8168,-1.8637,-1.8642,-1.8799,-1.8887,0,0,0,-1.7544,-1.7588,-1.7624,-1.7651,-1.7742,-1.79,-1.7923,-1.8017,-1.804,-1.8156,-1.8168,-1.8635,-1.8641,-1.8788,-1.887,-1.9025,0,0,0,-1.7537,-1.7767,-1.7627,-1.7885,-1.7741,-1.7999,-1.7921,-1.8112,-1.8231,-1.8162,-1.8637,-1.8644,-1.8785,-1.886,-1.9014,-1.9164,-1.9226,0,0,-1.784,-1.7805,-1.7954,-1.7835,-1.8124,-1.7965,-1.8278,-1.8367,-1.8358,-1.8551,-1.8562,-1.8802,-1.8869,-1.9023,-1.9559,-1.9609,0,0,0,-1.8058,-1.8167,-1.8239,-1.8353,-1.8424,-1.8495,-1.8532,-1.8565,-1.8727,-1.8461,-1.8896,-1.8935,-1.9025,-1.9096,-1.9138,-1.9216,-1.8676,-1.8675,-1.8674,-1.8523,-1.8498,-1.8746,-1.8747,-1.8858,-1.8894,-1.8983,-1.9033,-1.8975,-1.9078,-1.9138,-1.9466,-1.9549,-1.9581,-1.9663,-1.9209,-1.921,-1.921,-1.9211,-1.8971,-1.9124,-1.9039,-1.925,-1.9222,-1.9399,-1.9442,-1.9395,-1.9558,-1.9419,-1.9497,-1.9354,-1.9637,-1.9707,-1.9223,-1.9221,-1.9219,-1.9218,-1.9217,-1.9278,-1.9347,-1.9381,-1.9543,-1.9671,-1.9661,-1.9822,-1.9789,-1.9759,-1.9836,-1.9898,-1.9895,-1.9893,-1.9866,-1.9867,-1.9868,-1.9869,-1.987,-1.9871,-1.9587,-1.9619,-1.9758,-1.9853,-1.9922,-2.0008,-2.0044,-2.0112,-2.0179,-2.0143,-2.0143,-2.0079,-1.9666,-1.9567,-1.9889,-1.9885,-1.9883,-1.9881,-1.988,-2.0062,-1.9949,-2.0164,-2.0233,-2.0341,-2.0472,-2.0425,-2.0566,-2.0616,-2.0697,-2.0613,-2.0311,-2.0274,-2.024,-2.0159,-2.0614,-2.0614,-2.0614,-2.0614,-2.0328,-2.0302,-2.0516,-2.0629,-2.0735,-2.0714,-2.096,-2.099,-2.1003,-2.1033,-2.096,-2.0846,-2.0813,-2.0796,-2.075,-2.0674,-2.125,-2.125,-2.1251,-2.0621,-2.0605,-2.0822,-2.083,-2.0912,-2.0984,-2.1215,-2.135,-2.1339,-2.1276,-2.1057,-2.103,-2.0846,-2.0786,-2.0726,-2.0655,-2.0514,0,0]},{"header":{"parameterUnit":"m.s-1","parameterCategory":1,"la1":30.2992,"la2":30.254,"lo1":-89.0895,"lo2":-89.0443,"dy":0.0025,"dx":0.0025,"nx":19,"ny":19,"refTime":"2026-05-02T21:00:00:Z","depth":0,"parameterNumber":3,"parameterNumberName":"V-component_of_WINDS"},"data":[0,0,0,-3.7029,-3.7033,-3.7207,-3.7208,-3.7438,-3.744,0,0,0,0,0,0,0,0,0,0,0,-3.6984,-3.6986,-3.7029,-3.7033,-3.7207,-3.7208,-3.7438,-3.744,0,0,0,0,0,0,0,0,0,0,0,-3.6983,-3.6985,-3.6988,-3.7034,-3.7207,-3.7208,-3.7437,-3.7302,0,0,0,0,0,0,0,0,0,0,-3.7132,-3.7097,-3.6985,-3.6988,-3.7035,-3.7207,-3.7208,-3.7296,-3.7311,-3.7363,0,-3.7413,0,-3.743,-3.7456,-3.7457,0,0,0,-3.7028,-3.7085,-3.7126,-3.6988,-3.7037,-3.7207,-3.7127,-3.7304,-3.7321,-3.7383,-3.7416,-3.7424,-3.7434,-3.7458,-3.7459,-3.7781,-3.7783,0,0,-3.7018,-3.7019,-3.7114,-3.7137,-3.7114,-3.7122,-3.7133,-3.7314,-3.735,-3.7417,-3.7429,-3.7438,-3.7459,-3.7461,-3.778,-3.7782,0,0,0,-3.6994,-3.7012,-3.7049,-3.7128,-3.7159,-3.7127,-3.714,-3.7342,-3.7353,-3.7432,-3.7441,-3.7461,-3.7464,-3.7778,-3.778,-3.7869,0,0,0,-3.6988,-3.6998,-3.7045,-3.7047,-3.7156,-3.7253,-3.7163,-3.7341,-3.7361,-3.7439,-3.7461,-3.7466,-3.7776,-3.7779,-3.7863,-3.7911,0,0,0,-3.697,-3.6996,-3.7024,-3.7046,-3.7122,-3.725,-3.7273,-3.7345,-3.7367,-3.7457,-3.7467,-3.7774,-3.7779,-3.7857,-3.7902,-3.7997,0,0,0,-3.6951,-3.71,-3.7025,-3.7194,-3.712,-3.7305,-3.7271,-3.7408,-3.7496,-3.7462,-3.7776,-3.778,-3.7855,-3.7896,-3.799,-3.8077,-3.8114,0,0,-3.7139,-3.7122,-3.7221,-3.716,-3.7358,-3.7278,-3.7488,-3.7567,-3.7574,-3.7711,-3.7719,-3.7865,-3.7901,-3.7995,-3.8315,-3.8344,0,0,0,-3.7281,-3.7352,-3.7405,-3.7489,-3.7554,-3.7613,-3.766,-3.7689,-3.7806,-3.7645,-3.7925,-3.7946,-3.8001,-3.8043,-3.8067,-3.8115,-3.7799,-3.7799,-3.7798,-3.7547,-3.7549,-3.7713,-3.7737,-3.7818,-3.7865,-3.7931,-3.7978,-3.7955,-3.802,-3.8062,-3.8256,-3.8305,-3.8323,-3.8372,-3.8107,-3.8107,-3.8108,-3.8108,-3.7823,-3.7924,-3.789,-3.8038,-3.8038,-3.8161,-3.821,-3.819,-3.8303,-3.8225,-3.8274,-3.8189,-3.8355,-3.8398,-3.8115,-3.8113,-3.8113,-3.8112,-3.8111,-3.7998,-3.8047,-3.808,-3.8202,-3.8295,-3.8312,-3.8423,-3.8418,-3.8414,-3.8463,-3.8505,-3.8504,-3.8502,-3.8483,-3.8484,-3.8485,-3.8485,-3.8486,-3.8486,-3.8167,-3.8202,-3.8297,-3.8378,-3.8431,-3.85,-3.8547,-3.8599,-3.8654,-3.8642,-3.8642,-3.8613,-3.8371,-3.831,-3.8497,-3.8495,-3.8493,-3.8492,-3.8492,-3.8447,-3.8383,-3.853,-3.8583,-3.8677,-3.8769,-3.8761,-3.8866,-3.8908,-3.8962,-3.8922,-3.8743,-3.8726,-3.8706,-3.8656,-3.8921,-3.8921,-3.8921,-3.8921,-3.8596,-3.8586,-3.8735,-3.882,-3.8903,-3.8911,-3.9075,-3.9112,-3.914,-3.9165,-3.9126,-3.9059,-3.9039,-3.9033,-3.9006,-3.896,-3.9296,-3.9296,-3.9297,-3.8768,-3.8766,-3.8908,-3.8936,-3.9008,-3.907,-3.9223,-3.9321,-3.9339,-3.9312,-3.9185,-3.9169,-3.9061,-3.9025,-3.8997,-3.8956,-3.887,0,0]}]]